This is the latest recevied weather packets stored in our database for station/object KC1BRV. If no packets are shown the sender has not sent any weather packets the latest 10 day(s).
| Time | Temp. | Humidity | Pressure | Rain* | Wind** | Luminosity | Snow |
|---|---|---|---|---|---|---|---|
| 1777643184 | 11.67° C | 60% | 1011.6 hPa | 0 mm | - | 290 W/m² | - |
| 1777642880 | 11.11° C | 62% | 1011.8 hPa | 0 mm | - | 428 W/m² | - |
| 1777642577 | 11.11° C | 60% | 1011.9 hPa | 0 mm | - | 340 W/m² | - |
| 1777642274 | 11.67° C | 58% | 1011.9 hPa | 0 mm | - | 204 W/m² | - |
| 1777641971 | 12.22° C | 61% | 1011.7 hPa | 0 mm | - | 169 W/m² | - |
| 1777641667 | 11.67° C | 64% | 1011.6 hPa | 0 mm | - | 479 W/m² | - |
| 1777641361 | 11.11° C | 62% | 1011.7 hPa | 0 mm | - | 347 W/m² | - |
| 1777641057 | 11.11° C | 63% | 1011.7 hPa | 0 mm | - | 175 W/m² | - |
| 1777640753 | 10.56° C | 63% | 1011.6 hPa | 0 mm | - | 111 W/m² | - |
| 1777640450 | 10.56° C | 69% | 1011.7 hPa | 0 mm | - | 163 W/m² | - |
| 1777640147 | 10° C | 70% | 1011.6 hPa | 0 mm | - | 156 W/m² | - |
| 1777639844 | 10° C | 69% | 1011.6 hPa | 0 mm | - | 297 W/m² | - |
| 1777639541 | 10° C | 70% | 1011.5 hPa | 0 mm | - | 181 W/m² | - |
| 1777639238 | 10° C | 72% | 1011.6 hPa | 0 mm | - | 162 W/m² | - |
| 1777638935 | 10° C | 73% | 1011.7 hPa | 0 mm | - | 164 W/m² | - |
| 1777638630 | 9.44° C | 75% | 1011.6 hPa | 0 mm | - | 196 W/m² | - |
| 1777638327 | 9.44° C | 75% | 1011.7 hPa | 0 mm | - | 141 W/m² | - |
| 1777638023 | 8.89° C | 76% | 1011.6 hPa | 0 mm | - | 202 W/m² | - |
| 1777637720 | 8.89° C | 77% | 1011.5 hPa | 0 mm | - | 131 W/m² | - |
| 1777637416 | 8.89° C | 78% | 1011.6 hPa | 0 mm | - | 115 W/m² | - |
| 1777637114 | 8.89° C | 78% | 1011.6 hPa | 0 mm | - | 106 W/m² | - |
| 1777636810 | 8.89° C | 81% | 1011.7 hPa | 0 mm | - | 103 W/m² | - |
| 1777636506 | 8.33° C | 80% | 1011.6 hPa | 0 mm | - | 107 W/m² | - |
| 1777636202 | 8.33° C | 81% | 1011.5 hPa | 0 mm | - | 115 W/m² | - |
| 1777635896 | 8.33° C | 82% | 1011.4 hPa | 0 mm | - | 94 W/m² | - |
* Rain latest hour (hover to see other rain measurements)
** Current wind speed in m/s (hover to see current wind gust speed)